SCP
0 0 0 0 0 0 0 0 0 0 0 0 0 0 0 0 0 0 0 0 0 0 0 0 0 0 0 0 1 1 1 2 2 2 3 3 3 3
0 0 0 0 0 0 0 0 0 0 0 0 0 0 0 0 0 0 0 0 0 0 0 0 0 0 0 0 0 1 1 1 2 2 3 3 3 3
0 0 0 0 0 0 0 0 0 0 0 0 0 0 0 0 0 0 0 0 0 0 0 0 0 0 0 0 0 0 0 1 2 2 3 3 3 3
0 0 0 0 0 0 0 0 0 0 0 0 0 0 0 0 0 0 0 0 0 0 0 0 0 0 0 0 0 0 0 1 1 2 2 3 3 3
0 0 0 0 0 0 0 0 0 0 0 0 0 0 0 0 0 0 0 0 0 0 0 0 0 0 0 0 0 0 0 0 0 1 1 2 2 2
0 0 0 0 0 0 0 0 0 0 0 0 0 0 0 0 0 0 0 0 0 0 0 0 0 1 1 1 0 0 0 0 0 0 0 1 1 1
0 0 0 0 0 0 0 0 0 0 0 0 0 0 0 0 0 0 0 0 0 0 0 0 0 1 1 1 1 0 0 0 0 0 0 0 0 1
0 0 0 0 0 0 0 0 0 0 0 0 0 0 0 0 0 0 0 0 0 0 0 0 0 1 1 1 1 1 0 0 0 0 0 0 0 0
0 0 0 0 0 0 0 0 0 0 0 0 0 0 0 0 0 0 0 0 0 0 0 0 0 1 1 1 1 1 0 0 0 0 0 0 0 0
0 0 0 0 0 0 0 0 0 0 0 0 0 0 0 0 0 0 0 0 0 0 0 0 0 1 1 1 1 1 0 0 0 0 0 0 0 0
0 0 0 0 0 0 0 0 0 0 0 0 0 0 0 0 0 0 0 0 0 0 0 0 0 1 1 1 1 0 0 0 0 0 0 0 0 0
0 0 0 0 0 0 0 0 0 0 0 0 0 0 0 0 0 0 0 0 0 0 0 0 0 1 1 1 1 0 0 0 0 0 0 0 0 0
0 0 0 0 0 0 0 0 0 0 0 0 0 0 0 0 0 0 0 0 0 0 0 0 0 0 1 1 1 1 1 1 0 0 0 0 0 0
0 0 0 0 0 0 0 0 0 0 0 0 0 0 0 0 0 0 0 0 0 0 0 0 0 0 0 0 1 1 1 1 1 0 0 0 0 0
0 0 0 0 0 0 0 0 0 0 0 0 0 0 0 0 0 0 0 0 0 0 0 0 0 0 0 0 0 0 0 0 0 0 0 0 0 0
0 0 0 0 0 0 0 0 0 0 0 0 0 0 0 0 0 0 0 0 0 0 0 0 0 0 0 0 0 0 0 0 0 0 0 0 0 0
0 0 0 0 0 0 0 0 0 0 0 0 0 0 0 0 0 0 0 0 0 0 0 0 0 0 0 0 0 0 0 0 0 0 0 0 0 0
0 0 0 0 0 0 0 0 0 0 0 0 0 0 0 0 0 0 0 0 0 0 0 0 0 0 0 0 0 0 0 0 0 0 0 0 0 0
0 0 0 0 0 0 0 0 0 0 0 0 0 0 0 0 0 0 0 0 0 0 0 0 0 0 0 0 0 0 0 0 0 0 0 0 0 0
0 0 0 0 0 0 0 0 0 0 0 0 0 0 0 0 0 0 0 0 0 0 0 0 0 0 0 0 0 0 0 0 0 0 0 0 0 0
0 0 0 0 0 0 0 0 0 0 0 0 0 0 0 0 0 0 0 0 0 0 0 0 0 0 0 0 0 0 0 0 0 0 0 0 0 0
0 0 0 0 0 0 0 0 0 0 0 0 0 0 0 0 0 0 0 0 0 0 0 0 0 0 0 0 0 0 0 0 0 0 0 0 0 0
0 0 0 0 0 0 0 0 0 0 0 0 0 0 0 0 0 0 0 0 0 0 0 0 0 0 0 0 0 0 0 0 0 0 0 0 0 0
Wind_Speed
11 11 10 10 10 10 10 10 11 12 12 12 9 9 8 9 12 12 12 16 18 19 19 18 14 13 12 9 9 14 18 20 19 20 22 23 25 25
9 10 10 8 8 8 8 8 8 10 11 11 11 12 12 11 14 14 13 18 19 18 18 17 14 11 10 9 8 12 15 16 17 19 21 22 22 23
11 11 11 10 8 7 7 7 7 8 11 12 11 12 14 14 12 12 11 11 10 15 17 17 14 10 9 9 7 11 16 18 18 18 19 19 20 21
13 13 13 11 13 10 8 9 8 9 10 13 12 12 14 14 13 13 11 10 9 12 15 15 13 11 8 9 8 9 17 21 20 20 19 18 19 19
12 12 13 14 14 12 11 10 9 9 10 11 12 10 10 10 12 11 11 9 9 10 12 13 13 11 9 9 9 9 13 20 22 22 21 19 18 19
11 12 13 13 14 15 11 12 11 11 11 10 10 9 9 10 9 7 7 6 6 6 8 8 9 10 9 9 10 9 11 17 22 23 22 20 19 19
11 12 13 16 19 16 11 12 12 10 10 10 9 9 8 9 8 7 8 8 6 4 4 5 5 6 6 7 8 8 10 15 19 22 23 22 21 20
11 11 13 14 18 20 17 16 14 12 11 10 9 9 10 10 9 9 8 7 3 2 3 4 4 5 4 4 5 7 9 12 16 20 22 23 23 22
12 12 11 13 18 13 11 14 14 16 14 11 10 10 11 10 11 10 9 8 7 6 5 3 3 5 4 3 4 5 7 10 14 17 20 22 23 23
11 12 13 15 15 15 11 11 11 9 10 9 9 9 9 10 10 10 10 10 10 7 5 3 2 3 3 2 4 5 7 9 12 15 18 20 22 23
11 11 14 14 20 21 13 13 13 9 10 13 13 12 13 13 10 7 7 6 5 3 2 2 1 1 2 2 2 5 6 8 10 13 17 20 21 21
9 11 15 18 20 21 14 13 14 12 11 11 10 10 8 9 9 5 5 5 5 4 5 4 2 1 2 1 1 2 3 6 9 13 16 20 23 16
8 9 10 20 20 20 17 13 16 15 11 10 9 7 7 6 5 5 5 5 5 5 5 7 4 2 1 2 1 1 2 3 5 7 14 20 23 17
8 8 11 19 19 19 16 19 21 16 9 9 8 8 8 7 7 7 6 6 8 9 9 7 4 4 2 2 1 1 1 2 3 5 7 15 18 18
7 12 14 17 16 13 18 21 16 11 10 10 10 9 8 9 8 7 6 5 7 8 8 7 5 5 3 2 1 1 2 2 2 4 6 8 10 14
6 9 12 13 12 13 13 12 10 11 11 10 10 9 9 8 8 7 6 5 3 2 3 5 5 4 2 2 1 1 2 2 2 5 6 7 7 10
8 6 6 7 8 9 9 10 10 10 11 10 10 10 10 9 9 8 6 5 4 3 4 4 3 2 5 5 1 2 4 4 5 7 9 10 7 8
8 6 7 7 8 8 9 9 10 10 11 11 11 11 10 10 10 9 8 6 5 5 4 4 3 1 2 5 10 2 4 5 6 8 9 13 10 7
7 6 7 7 7 7 7 8 9 10 10 10 11 11 11 10 10 9 9 8 6 6 5 5 4 2 2 2 6 12 4 7 8 9 8 10 12 10
7 7 7 7 7 7 7 7 7 8 9 10 10 11 11 10 10 10 9 10 8 6 6 5 5 4 2 3 3 6 13 5 9 13 12 12 13 18
8 8 7 7 7 6 6 6 6 7 8 9 9 10 10 10 10 10 9 13 10 8 7 6 6 6 2 2 6 5 8 16 11 10 16 17 15 13
8 8 8 8 7 6 6 5 6 6 7 7 8 9 9 10 10 11 10 9 8 8 7 5 5 4 2 5 8 9 10 12 17 21 18 11 10 12
9 9 8 8 7 6 5 5 6 5 5 6 7 7 8 9 9 9 9 9 8 9 7 6 6 6 6 7 9 11 14 13 11 12 13 19 25 29
Wind_Direction
294 287 278 273 269 266 264 265 275 289 297 305 306 307 307 300 297 292 288 286 289 292 293 294 297 305 311 293 247 220 206 192 186 183 185 190 191 191
314 303 294 286 283 281 280 275 273 282 291 299 305 306 307 300 295 290 282 281 279 278 279 282 285 294 306 301 252 206 195 185 180 178 184 188 189 188
337 333 327 319 315 306 306 309 307 302 297 299 303 306 306 303 300 291 278 269 265 264 267 269 273 281 296 297 271 211 190 188 186 182 185 187 187 184
337 336 335 331 329 323 323 323 318 312 304 303 305 307 309 309 303 291 276 262 256 256 256 258 261 267 283 288 272 222 189 183 185 185 185 187 186 181
333 332 331 329 330 329 329 329 323 316 306 299 303 308 311 318 311 292 277 260 253 248 248 247 249 256 267 275 266 232 195 183 181 182 183 182 180 177
330 329 328 324 325 325 328 331 327 319 311 303 304 310 315 325 319 311 300 280 254 238 234 229 235 245 247 261 257 232 201 186 183 179 176 174 170 171
330 328 325 326 325 326 328 331 328 320 315 311 308 313 320 328 330 325 316 304 263 234 233 217 214 224 224 242 247 223 198 189 185 181 176 170 168 168
332 330 325 327 325 326 324 329 329 321 321 316 311 313 316 320 322 321 322 317 287 350 282 230 207 210 211 225 223 203 190 188 186 182 179 173 169 169
337 336 332 328 330 319 324 331 324 320 322 320 309 309 312 317 318 317 320 318 305 320 314 254 204 207 198 211 205 193 184 182 182 179 177 174 171 170
340 337 333 329 327 341 339 331 322 320 322 316 309 310 311 314 313 309 306 301 283 262 248 271 200 198 181 181 196 198 186 178 178 177 175 172 168 167
343 339 335 336 341 351 347 336 331 335 333 325 323 319 318 317 322 319 314 308 293 284 247 276 279 189 161 158 181 199 189 176 175 176 173 169 164 160
344 342 340 349 352 355 354 345 340 343 337 330 327 326 325 321 328 321 307 301 300 306 357 338 320 230 141 94 78 172 180 179 175 175 171 167 163 164
345 344 344 353 357 357 358 354 351 350 338 333 330 333 333 329 327 318 293 277 281 292 353 347 326 332 86 104 93 186 170 158 163 169 170 166 167 166
347 345 347 354 357 357 359 0 358 355 346 341 341 343 341 337 331 319 296 267 256 267 295 315 307 332 359 89 100 85 113 134 147 152 160 165 164 154
343 344 347 352 353 353 357 1 359 353 350 347 345 344 339 333 330 327 316 284 255 251 264 271 275 307 329 19 48 69 68 47 108 137 146 157 155 148
339 336 341 346 352 354 356 358 356 355 354 347 344 343 343 345 350 349 344 336 312 289 271 277 272 278 321 343 12 59 98 111 95 104 114 115 127 138
339 330 337 343 349 353 355 357 356 355 354 350 351 353 354 356 358 358 356 355 7 357 345 338 338 69 61 21 52 84 113 106 103 107 112 106 91 116
347 339 341 341 344 346 348 351 354 356 353 352 356 359 359 359 1 1 5 8 11 7 360 347 337 352 59 46 21 62 97 103 102 100 113 116 100 85
353 346 341 337 335 336 340 345 349 353 352 354 358 0 360 1 4 5 7 9 9 8 6 0 358 352 105 84 14 16 76 112 111 101 97 110 111 106
351 345 341 336 331 330 333 338 342 348 356 356 360 1 1 3 6 7 9 8 6 7 13 19 17 9 33 97 87 32 27 81 123 116 107 99 95 101
345 342 339 336 331 327 326 327 332 341 353 354 1 1 1 4 7 6 7 9 12 12 16 13 357 353 3 88 98 73 47 49 70 117 128 122 119 116
338 336 334 333 331 328 324 321 324 335 349 356 360 1 2 4 6 7 7 8 11 9 11 12 8 17 44 105 111 105 93 79 65 61 58 86 128 139
332 331 329 329 330 329 323 317 314 322 339 349 355 0 1 5 6 7 8 11 13 14 17 28 41 52 67 94 106 108 105 100 93 80 67 80 93 106